Tracking 35280 objects as of 7-Sep-2026
HD Live streaming from Space Station
objects crossing your sky now

STARLINK-3975

Track STARLINK-3975 now!
10-day predictions
STARLINK-3975 is classified as:


NORAD ID: 52620
Int'l Code: 2022-052Y
Launch date: May 14, 2022
Source: United States (US)
Launch site: AIR FORCE EASTERN TEST RANGE (AFETR)
Your satellite tracking list
Your tracking list is empty




NASA's NSSDC Master Catalog

Two Line Element Set (TLE):
1 52620U 22052Y   26248.80121717 -.00003276  00000-0 -88287-4 0  9992
2 52620  53.1579 184.7193 0001415  75.4589 284.6570 15.33560561238111
Source of the keplerian elements: AFSPC